sat.trackr.live / text

‹ back to catalog

STARLINK-37303

NORAD 68709 · 2026-081L

PAYLOAD ACTIVE UNKNOWN

§ Identity

Operator
Country
US
Launch date
2026-04-14
Launch site
AFETR
Launch vehicle
Mass (kg)
RCS (m²)

Purposes: comms

External: N2YO · Heavens-Above · Gunter

§ Orbital elements

Epoch: 2026-05-25T00:30:24.541632Z

Period
92.94 min
Inclination
53.1591°
Eccentricity
0.0000981
Mean motion
15.49340001 rev/d
Perigee alt
418.0 km
Apogee alt
419.3 km
Semi-major
6,796.8 km
B*
5.9051e-4
RAAN
39.9651°
Arg perigee
102.8779°
Mean anomaly
257.2339°
Rev number
642

§ Raw data

STARLINK-373031 68709U 26081L   26145.02111738  .00032566  00000+0  59051-3 0  99922 68709  53.1591  39.9651 0000981 102.8779 257.2339 15.49340001  6421

JSON: /api/v1/satellites/68709 · /tle

For live sub-satellite position, see the globe view (requires WebGL).

§ Visibility from observer

Set your observer location to see the next 7 days of passes ≥ 10°. The values pass through the URL so the page stays shareable.

No JS? Fill the form by hand. The geolocation button needs JavaScript.